^^
Grace C. Lehan Memorial Weather Station Historical Data
Daily Summary for January 7, 2021 Units:  Metric    English   Both
Daily Weekly Monthly Yearly
  High: Low: Average:
Temperature: 6.8 °C 0.1 °C 3.6 °C
Dew Point: 2.1 °C -6 °C -3.8 °C
Humidity: 75% 43.5% 59%
Wind Speed: 15.3km/h 0km/h 1.8km/h
Wind Gust: 35.4km/h - -
Wind- - WNW
Pressure: 1021.6 hPa 1008 hPa -
Precipitation: 0 mm    
 
 
Tabular Data for January 7, 2021
Time Temperature Dew Point Pressure Wind Wind Speed Wind Gust Humidity Rainfall Rate (Hourly) solar
00:04 6.2 °C 2.1 °C 1008 hPa NW 10.8 km/h 35.4 km/h 75% 0.25 mm 0 W/m2
00:09 6.1 °C 1.8 °C 1008.4 hPa NW 13.4 km/h 29 km/h 74.2% 0.25 mm 0 W/m2
00:14 6 °C 1.6 °C 1008.4 hPa WNW 8.5 km/h 29 km/h 73.2% 0.25 mm 0 W/m2
00:19 5.9 °C 1.2 °C 1008.7 hPa NW 10.9 km/h 32.2 km/h 71.9% 0.25 mm 0 W/m2
00:24 5.8 °C 0.8 °C 1008.7 hPa NW 14.5 km/h 32.2 km/h 70.1% 0.25 mm 0 W/m2
00:29 5.7 °C 0.4 °C 1008.7 hPa NW 15.3 km/h 32.2 km/h 68.6% 0.25 mm 0 W/m2
00:34 5.7 °C 0.2 °C 1008.7 hPa WNW 10.9 km/h 32.2 km/h 67.8% 0.25 mm 0 W/m2
00:39 5.6 °C 0.2 °C 1009 hPa NW 7.2 km/h 20.9 km/h 68% 0.25 mm 0 W/m2
00:44 5.5 °C -0.1 °C 1009 hPa WNW 6.6 km/h 20.9 km/h 67.5% 0.25 mm 0 W/m2
00:49 5.4 °C -0.1 °C 1009.4 hPa WNW 4 km/h 20.9 km/h 67.8% 0.25 mm 0 W/m2
00:54 5.3 °C -0.3 °C 1009.4 hPa WNW 4.7 km/h 20.9 km/h 67.5% 0.25 mm 0 W/m2
00:59 5.2 °C -0.3 °C 1009.4 hPa WNW 2.7 km/h 20.9 km/h 67.5% 0.25 mm 0 W/m2
01:04 5.1 °C -0.6 °C 1009.7 hPa WNW 5.3 km/h 20.9 km/h 67.2% 0.25 mm 0 W/m2
01:09 4.9 °C -0.7 °C 1009.7 hPa WNW 5.3 km/h 16.1 km/h 67% 0 mm 0 W/m2
01:14 4.9 °C -0.8 °C 1009.7 hPa WNW 6.1 km/h 17.7 km/h 66.8% 0 mm 0 W/m2
01:19 4.8 °C -0.8 °C 1010 hPa WNW 5.8 km/h 22.5 km/h 66.6% 0 mm 0 W/m2
01:24 4.8 °C -0.8 °C 1010 hPa WNW 2.6 km/h 22.5 km/h 67% 0 mm 0 W/m2
01:29 4.7 °C -0.9 °C 1010 hPa WNW 1 km/h 22.5 km/h 67% 0 mm 0 W/m2
01:34 4.6 °C -0.8 °C 1010.4 hPa WNW 0.6 km/h 22.5 km/h 68% 0 mm 0 W/m2
01:39 4.5 °C -0.8 °C 1010.4 hPa WNW 1.8 km/h 11.3 km/h 68.2% 0 mm 0 W/m2
01:44 4.4 °C -1 °C 1010.7 hPa WNW 2.9 km/h 14.5 km/h 68.2% 0 mm 0 W/m2
01:49 4.3 °C -1.1 °C 1010.7 hPa WNW 2.3 km/h 14.5 km/h 68% 0 mm 0 W/m2
01:54 4.3 °C -1 °C 1011.1 hPa WNW 1 km/h 14.5 km/h 68.4% 0 mm 0 W/m2
01:59 4.2 °C -0.9 °C 1011.1 hPa WNW 0.3 km/h 14.5 km/h 69% 0 mm 0 W/m2
02:04 4.2 °C -1 °C 1011.1 hPa WNW 0.5 km/h 14.5 km/h 69% 0 mm 0 W/m2
02:09 4.1 °C -1 °C 1011.4 hPa WNW 0.3 km/h 9.7 km/h 69.2% 0 mm 0 W/m2
02:14 4.1 °C -0.9 °C 1011.4 hPa Calm   9.7 km/h 70% 0 mm 0 W/m2
02:19 4 °C -1 °C 1011.7 hPa Calm   9.7 km/h 70% 0 mm 0 W/m2
02:24 3.9 °C -1.3 °C 1011.7 hPa NW 1.1 km/h 12.9 km/h 68.8% 0 mm 0 W/m2
02:29 3.9 °C -1.3 °C 1011.7 hPa NW 0.5 km/h 12.9 km/h 69% 0 mm 0 W/m2
02:34 3.8 °C -1.5 °C 1012.1 hPa NW 2.4 km/h 12.9 km/h 68.3% 0 mm 0 W/m2
02:39 3.8 °C -1.5 °C 1012.4 hPa WNW 0.8 km/h 9.7 km/h 68% 0 mm 0 W/m2
02:44 3.8 °C -1.6 °C 1012.4 hPa WNW 3.1 km/h 16.1 km/h 68% 0 mm 0 W/m2
02:49 3.7 °C -1.8 °C 1012.4 hPa WNW 4.7 km/h 17.7 km/h 67.2% 0 mm 0 W/m2
02:54 3.7 °C -1.8 °C 1012.4 hPa WNW 2.4 km/h 17.7 km/h 67% 0 mm 0 W/m2
02:59 3.7 °C -1.8 °C 1012.4 hPa WNW 3.4 km/h 17.7 km/h 67% 0 mm 0 W/m2
03:04 3.7 °C -1.9 °C 1012.4 hPa West 1.9 km/h 17.7 km/h 67% 0 mm 0 W/m2
03:09 3.7 °C -1.9 °C 1012.4 hPa West 2.4 km/h 14.5 km/h 67% 0 mm 0 W/m2
03:14 3.6 °C -1.9 °C 1012.4 hPa West 0.8 km/h 14.5 km/h 67% 0 mm 0 W/m2
03:19 3.5 °C -2 °C 1012.8 hPa WSW 0.6 km/h 14.5 km/h 67% 0 mm 0 W/m2
03:24 3.4 °C -2.1 °C 1012.8 hPa WSW 0.2 km/h 14.5 km/h 67% 0 mm 0 W/m2
03:29 3.4 °C -2 °C 1013.1 hPa WSW 0.3 km/h 14.5 km/h 68% 0 mm 0 W/m2
03:34 3.3 °C -2.1 °C 1013.1 hPa WSW 0.2 km/h 14.5 km/h 68% 0 mm 0 W/m2
03:39 3.2 °C -2.2 °C 1013.1 hPa WSW 0.5 km/h 3.2 km/h 68% 0 mm 0 W/m2
03:44 3.1 °C -2.3 °C 1013.1 hPa Calm   3.2 km/h 68% 0 mm 0 W/m2
03:49 3 °C -2.3 °C 1013.1 hPa Calm   3.2 km/h 68.3% 0 mm 0 W/m2
03:54 2.9 °C -2.3 °C 1013.1 hPa Calm   3.2 km/h 68.9% 0 mm 0 W/m2
03:59 2.8 °C -2.3 °C 1013.1 hPa West 0.6 km/h 8 km/h 69% 0 mm 0 W/m2
04:09 2.7 °C -2.6 °C 1013.1 hPa WNW 0.3 km/h 3.2 km/h 68% 0 mm 0 W/m2
04:14 2.8 °C -2.6 °C 1013.1 hPa WNW 3.1 km/h 16.1 km/h 68% 0 mm 0 W/m2
04:19 2.8 °C -2.5 °C 1013.1 hPa WNW 0.3 km/h 16.1 km/h 68.2% 0 mm 0 W/m2
04:24 2.8 °C -2.6 °C 1013.4 hPa WNW 0.2 km/h 16.1 km/h 68% 0 mm 0 W/m2
04:29 2.7 °C -2.6 °C 1013.4 hPa West 0.6 km/h 16.1 km/h 68% 0 mm 0 W/m2
04:34 2.7 °C -2.7 °C 1013.8 hPa West 1.4 km/h 16.1 km/h 68% 0 mm 0 W/m2
04:39 2.7 °C -2.7 °C 1013.8 hPa West 0.3 km/h 11.3 km/h 68% 0 mm 0 W/m2
04:44 2.6 °C -2.7 °C 1013.8 hPa Calm   11.3 km/h 68% 0 mm 0 W/m2
04:49 2.6 °C -2.8 °C 1013.8 hPa Calm   11.3 km/h 67.6% 0 mm 0 W/m2
04:54 2.5 °C -2.9 °C 1014.4 hPa Calm   11.3 km/h 67.6% 0 mm 0 W/m2
04:59 2.4 °C -3.1 °C 1014.4 hPa Calm   11.3 km/h 67.1% 0 mm 0 W/m2
05:04 2.3 °C -3.2 °C 1014.8 hPa Calm   11.3 km/h 67% 0 mm 0 W/m2
05:09 2.3 °C -3.1 °C 1014.8 hPa Calm     67.7% 0 mm 0 W/m2
05:14 2.2 °C -3.1 °C 1014.8 hPa Calm     68.2% 0 mm 0 W/m2
05:19 2.1 °C -2.9 °C 1015.1 hPa Calm     69.3% 0 mm 0 W/m2
05:24 2 °C -2.9 °C 1015.1 hPa WNW 1.6 km/h 17.7 km/h 70% 0 mm 0 W/m2
05:29 1.9 °C -3.1 °C 1015.5 hPa WNW 1.1 km/h 17.7 km/h 69.4% 0 mm 0 W/m2
05:34 1.9 °C -3.2 °C 1015.5 hPa WNW 0.2 km/h 17.7 km/h 69.2% 0 mm 0 W/m2
05:39 1.9 °C -3.3 °C 1015.5 hPa WNW 3.5 km/h 17.7 km/h 68.3% 0 mm 0 W/m2
05:44 2 °C -3.6 °C 1015.5 hPa WNW 1.4 km/h 17.7 km/h 66.4% 0 mm 0 W/m2
05:49 2.2 °C -3.6 °C 1015.8 hPa WNW 3.4 km/h 17.7 km/h 65.6% 0 mm 0 W/m2
05:54 2.2 °C -3.8 °C 1015.8 hPa NW 1.8 km/h 17.7 km/h 64.4% 0 mm 0 W/m2
05:59 2.3 °C -4 °C 1015.8 hPa WNW 4.7 km/h 22.5 km/h 62.9% 0 mm 0 W/m2
06:04 2.4 °C -3.9 °C 1015.8 hPa WNW 0.8 km/h 22.5 km/h 62.9% 0 mm 0 W/m2
06:09 2.4 °C -4 °C 1015.8 hPa WNW 1.9 km/h 11.3 km/h 62.6% 0 mm 0 W/m2
06:14 2.4 °C -4.1 °C 1015.8 hPa WNW 6.6 km/h 19.3 km/h 62% 0 mm 0 W/m2
06:19 2.4 °C -4.3 °C 1015.8 hPa WNW 6.1 km/h 19.3 km/h 61% 0 mm 0 W/m2
06:24 2.5 °C -4.3 °C 1016.1 hPa WNW 4.7 km/h 20.9 km/h 61% 0 mm 0 W/m2
06:29 2.5 °C -4.4 °C 1016.1 hPa WNW 5 km/h 20.9 km/h 60.3% 0 mm 0 W/m2
06:34 2.6 °C -4.3 °C 1016.1 hPa WNW 2.3 km/h 20.9 km/h 60.3% 0 mm 0 W/m2
06:39 2.6 °C -4.4 °C 1016.1 hPa NW 3.2 km/h 14.5 km/h 60% 0 mm 0 W/m2
06:44 2.6 °C -4.5 °C 1016.1 hPa WNW 2.1 km/h 16.1 km/h 59.6% 0 mm 0 W/m2
06:49 2.6 °C -4.5 °C 1016.1 hPa NW 1.4 km/h 16.1 km/h 59.7% 0 mm 0 W/m2
06:54 2.5 °C -4.6 °C 1016.5 hPa WNW 2.4 km/h 16.1 km/h 59.5% 0 mm 0 W/m2
06:59 2.4 °C -4.7 °C 1016.5 hPa WNW 0.8 km/h 16.1 km/h 59.2% 0 mm 0 W/m2
07:04 2.4 °C -4.8 °C 1016.5 hPa WNW 0.6 km/h 16.1 km/h 59% 0 mm 0 W/m2
07:09 2.3 °C -4.8 °C 1016.5 hPa WNW 0.8 km/h 11.3 km/h 59% 0 mm 7 W/m2
07:14 2.3 °C -4.9 °C 1016.5 hPa WNW 0.8 km/h 11.3 km/h 59% 0 mm 7 W/m2
07:19 2.2 °C -4.7 °C 1016.8 hPa WNW 0.2 km/h 11.3 km/h 60% 0 mm 11 W/m2
07:24 2.2 °C -4.7 °C 1016.8 hPa Calm   11.3 km/h 60.5% 0 mm 12 W/m2
07:29 2.1 °C -4.4 °C 1016.8 hPa WNW 0.2 km/h 11.3 km/h 62.1% 0 mm 19 W/m2
07:34 1.9 °C -4.4 °C 1016.8 hPa Calm   11.3 km/h 63% 0 mm 28 W/m2
07:39 1.9 °C -4.3 °C 1017.2 hPa Calm     63.6% 0 mm 40 W/m2
07:44 1.9 °C -4 °C 1017.2 hPa Calm     64.9% 0 mm 58 W/m2
07:49 1.9 °C -4.1 °C 1017.5 hPa Calm     64.4% 0 mm 84 W/m2
07:54 2.1 °C -3.8 °C 1017.5 hPa Calm     64.7% 0 mm 84 W/m2
07:59 2.4 °C -3.7 °C 1017.8 hPa Calm     64% 0 mm 107 W/m2
08:00 2.5 °C -3.6 °C 1017.5 hPa Calm     64% 0 mm 107 W/m2
08:09 3.2 °C -3.1 °C 1017.8 hPa Calm     63.6% 0 mm 148 W/m2
08:14 3.7 °C -2.9 °C 1017.8 hPa Calm     62.4% 0 mm 148 W/m2
08:19 4.2 °C -2.8 °C 1017.8 hPa Calm     60.7% 0 mm 181 W/m2
08:24 4.6 °C -2.8 °C 1018.2 hPa Calm     58.8% 0 mm 192 W/m2
08:29 4.9 °C -3 °C 1018.2 hPa WNW 1 km/h 4.8 km/h 56.5% 0 mm 176 W/m2
08:34 5.2 °C -2.8 °C 1018.2 hPa Calm   4.8 km/h 56.2% 0 mm 174 W/m2
08:39 5.4 °C -2.7 °C 1018.5 hPa West 0.3 km/h 4.8 km/h 55.8% 0 mm 207 W/m2
08:44 5.7 °C -2.7 °C 1018.5 hPa Calm   4.8 km/h 54.9% 0 mm 216 W/m2
08:49 5.9 °C -2.9 °C 1018.5 hPa West 0.5 km/h 4.8 km/h 53.1% 0 mm 202 W/m2
08:54 6.1 °C -3.2 °C 1018.5 hPa West 0.5 km/h 4.8 km/h 51.5% 0 mm 171 W/m2
08:59 6.1 °C -2.9 °C 1018.5 hPa WNW 2.1 km/h 14.5 km/h 52.3% 0 mm 148 W/m2
09:04 6 °C -3.5 °C 1018.5 hPa WNW 0.8 km/h 14.5 km/h 50.5% 0 mm 155 W/m2
09:09 5.9 °C -3.6 °C 1018.8 hPa WNW 0.6 km/h 6.4 km/h 50.6% 0 mm 200 W/m2
09:14 5.8 °C -3.4 °C 1018.8 hPa Calm   6.4 km/h 51.3% 0 mm 172 W/m2
09:19 5.8 °C -3.6 °C 1018.8 hPa West 1.4 km/h 6.4 km/h 51.2% 0 mm 195 W/m2
09:24 5.7 °C -3.7 °C 1019.2 hPa West 2.6 km/h 14.5 km/h 51% 0 mm 207 W/m2
09:29 5.6 °C -3.9 °C 1019.2 hPa West 3.1 km/h 16.1 km/h 50.5% 0 mm 141 W/m2
09:34 5.4 °C -4 °C 1019.2 hPa WNW 8 km/h 22.5 km/h 50.6% 0 mm 158 W/m2
09:39 5.2 °C -4.2 °C 1019.5 hPa WNW 9.3 km/h 22.5 km/h 50.5% 0 mm 158 W/m2
09:44 5.1 °C -4.5 °C 1019.5 hPa WNW 4 km/h 22.5 km/h 50.2% 0 mm 151 W/m2
09:49 5 °C -3.9 °C 1019.5 hPa WNW 1.6 km/h 22.5 km/h 52.6% 0 mm 163 W/m2
09:54 5.1 °C -3.6 °C 1019.5 hPa WNW 4.3 km/h 22.5 km/h 53.4% 0 mm 176 W/m2
09:59 5.2 °C -4 °C 1019.5 hPa WNW 6.9 km/h 22.5 km/h 51.5% 0 mm 204 W/m2
10:04 5.2 °C -4.1 °C 1019.5 hPa West 6.9 km/h 22.5 km/h 51% 0 mm 276 W/m2
10:09 5.2 °C -3.9 °C 1019.5 hPa West 2.9 km/h 17.7 km/h 51.5% 0 mm 294 W/m2
10:14 5.4 °C -3.7 °C 1019.5 hPa NW 1.9 km/h 17.7 km/h 52% 0 mm 232 W/m2
10:19 5.4 °C -3.7 °C 1019.5 hPa WNW 6.6 km/h 17.7 km/h 51.5% 0 mm 155 W/m2
10:24 5.4 °C -4.2 °C 1019.5 hPa NW 4.2 km/h 17.7 km/h 50.2% 0 mm 202 W/m2
10:29 5.3 °C -3.9 °C 1019.5 hPa WNW 2.9 km/h 17.7 km/h 51.4% 0 mm 236 W/m2
10:34 5.4 °C -3.8 °C 1019.2 hPa WNW 6.4 km/h 19.3 km/h 51.3% 0 mm 167 W/m2
10:39 5.3 °C -4.2 °C 1019.2 hPa WNW 7.1 km/h 19.3 km/h 50.1% 0 mm 142 W/m2
10:44 5.2 °C -4.3 °C 1019.2 hPa WNW 4.2 km/h 19.3 km/h 50.3% 0 mm 153 W/m2
10:49 5.2 °C -3.8 °C 1019.2 hPa WNW 2.4 km/h 19.3 km/h 51.8% 0 mm 172 W/m2
10:54 5.3 °C -3.7 °C 1019.2 hPa WNW 1.9 km/h 19.3 km/h 52.3% 0 mm 229 W/m2
10:59 5.3 °C -3.5 °C 1019.2 hPa WNW 1.6 km/h 19.3 km/h 52.7% 0 mm 223 W/m2
11:04 5.6 °C -3.2 °C 1019.2 hPa West 0.6 km/h 19.3 km/h 53.1% 0 mm 223 W/m2
11:09 5.7 °C -3.5 °C 1019.2 hPa WNW 2.7 km/h 9.7 km/h 51.4% 0 mm 188 W/m2
11:14 5.8 °C -3.4 °C 1019.2 hPa WNW 1 km/h 9.7 km/h 51.4% 0 mm 195 W/m2
11:19 5.9 °C -3.6 °C 1018.8 hPa WNW 1.3 km/h 11.3 km/h 50.2% 0 mm 199 W/m2
11:24 5.9 °C -3.6 °C 1018.8 hPa WNW 2.6 km/h 11.3 km/h 50.5% 0 mm 213 W/m2
11:29 5.9 °C -3.9 °C 1018.8 hPa WNW 2.1 km/h 14.5 km/h 49.3% 0 mm 218 W/m2
11:34 5.9 °C -3.7 °C 1018.8 hPa WNW 1.1 km/h 14.5 km/h 50% 0 mm 204 W/m2
11:39 5.8 °C -4.1 °C 1018.8 hPa West 4.8 km/h 19.3 km/h 48.9% 0 mm 179 W/m2
11:44 5.7 °C -4.3 °C 1018.8 hPa WNW 6.1 km/h 20.9 km/h 48.4% 0 mm 165 W/m2
11:49 5.6 °C -4 °C 1018.8 hPa WNW 1.9 km/h 20.9 km/h 50.3% 0 mm 158 W/m2
11:54 5.5 °C -3.9 °C 1018.8 hPa WNW 2.6 km/h 20.9 km/h 50.6% 0 mm 195 W/m2
11:59 5.4 °C -4.2 °C 1018.8 hPa WNW 8.9 km/h 20.9 km/h 49.9% 0 mm 223 W/m2
12:00 5.4 °C -4.4 °C 1018.8 hPa WNW 14.5 km/h 20.9 km/h 49% 0 mm 211 W/m2
12:09 5.5 °C -3.4 °C 1018.8 hPa WNW 1.9 km/h 11.3 km/h 52.6% 0 mm 239 W/m2
12:14 5.6 °C -3.8 °C 1018.8 hPa WNW 4.8 km/h 17.7 km/h 50.8% 0 mm 262 W/m2
12:19 5.7 °C -3.8 °C 1018.8 hPa WNW 2.7 km/h 17.7 km/h 50.3% 0 mm 295 W/m2
12:24 5.9 °C -3.6 °C 1018.8 hPa WNW 5.3 km/h 17.7 km/h 50.8% 0 mm 341 W/m2
12:29 6 °C -4.2 °C 1018.8 hPa WNW 10.1 km/h 20.9 km/h 48% 0 mm 341 W/m2
12:34 6 °C -4.3 °C 1018.8 hPa WNW 3.9 km/h 20.9 km/h 47.6% 0 mm 295 W/m2
12:39 6.1 °C -4.1 °C 1018.8 hPa NW 6.4 km/h 20.9 km/h 48.3% 0 mm 287 W/m2
12:44 6.2 °C -4.2 °C 1019.2 hPa WNW 6.4 km/h 20.9 km/h 47.3% 0 mm 274 W/m2
12:49 6.2 °C -4.3 °C 1018.8 hPa WNW 6.3 km/h 20.9 km/h 47.2% 0 mm 322 W/m2
12:54 6.1 °C -4.4 °C 1018.8 hPa WNW 8 km/h 20.9 km/h 46.8% 0 mm 144 W/m2
12:59 6.1 °C -4.6 °C 1018.8 hPa WNW 8.7 km/h 20.9 km/h 46.1% 0 mm 199 W/m2
13:04 6 °C -4.7 °C 1019.2 hPa WNW 6.1 km/h 20.9 km/h 46% 0 mm 188 W/m2
13:09 5.9 °C -4.6 °C 1019.2 hPa West 2.9 km/h 19.3 km/h 46.8% 0 mm 183 W/m2
13:14 6 °C -4.2 °C 1019.2 hPa West 3.9 km/h 19.3 km/h 48% 0 mm 276 W/m2
13:19 6.2 °C -4.3 °C 1019.2 hPa WSW 1.4 km/h 19.3 km/h 47.1% 0 mm 234 W/m2
13:24 6.3 °C -4.4 °C 1019.2 hPa West 4.2 km/h 19.3 km/h 46.2% 0 mm 153 W/m2
13:29 6.3 °C -4.7 °C 1018.8 hPa WNW 2.3 km/h 19.3 km/h 45% 0 mm 77 W/m2
13:34 6.2 °C -4.6 °C 1018.8 hPa WNW 4.5 km/h 19.3 km/h 45.8% 0 mm 137 W/m2
13:39 6.1 °C -4.7 °C 1018.8 hPa WNW 4 km/h 16.1 km/h 46.2% 0 mm 102 W/m2
13:44 5.9 °C -4.9 °C 1018.8 hPa WNW 3.1 km/h 16.1 km/h 45.8% 0 mm 230 W/m2
13:49 5.8 °C -4.8 °C 1018.8 hPa WSW 4 km/h 16.1 km/h 46.2% 0 mm 253 W/m2
13:54 6 °C -4.8 °C 1018.8 hPa WSW 2.6 km/h 16.1 km/h 45.9% 0 mm 209 W/m2
13:59 6.1 °C -4.6 °C 1018.8 hPa West 2.3 km/h 16.1 km/h 46% 0 mm 276 W/m2
14:04 6.3 °C -4.3 °C 1018.8 hPa West 1.1 km/h 16.1 km/h 46.3% 0 mm 155 W/m2
14:09 6.6 °C -4.4 °C 1018.8 hPa West 0.6 km/h 9.7 km/h 45.2% 0 mm 172 W/m2
14:14 6.8 °C -4.6 °C 1018.8 hPa West 1.4 km/h 9.7 km/h 44.3% 0 mm 135 W/m2
14:19 6.7 °C -4.6 °C 1018.8 hPa WNW 2.7 km/h 14.5 km/h 44.5% 0 mm 125 W/m2
14:24 6.6 °C -4.9 °C 1019.2 hPa West 3.9 km/h 16.1 km/h 43.5% 0 mm 149 W/m2
14:29 6.5 °C -4.7 °C 1019.2 hPa West 1.1 km/h 16.1 km/h 44.6% 0 mm 79 W/m2
14:34 6.4 °C -4.5 °C 1019.2 hPa West 0.3 km/h 16.1 km/h 45.4% 0 mm 76 W/m2
14:39 6.4 °C -4.7 °C 1018.8 hPa West 2.1 km/h 8 km/h 45% 0 mm 74 W/m2
14:44 6.3 °C -4.8 °C 1019.2 hPa West 4 km/h 14.5 km/h 45% 0 mm 77 W/m2
14:49 6.1 °C -4.9 °C 1018.8 hPa WNW 2.7 km/h 14.5 km/h 45% 0 mm 79 W/m2
14:54 5.9 °C -5.1 °C 1018.8 hPa WNW 0.2 km/h 14.5 km/h 45% 0 mm 83 W/m2
14:59 5.8 °C -5.4 °C 1018.8 hPa West 3.1 km/h 14.5 km/h 44.3% 0 mm 62 W/m2
15:04 5.8 °C -5.1 °C 1019.2 hPa WSW 0.5 km/h 14.5 km/h 45.6% 0 mm 49 W/m2
15:09 5.7 °C -4.7 °C 1019.2 hPa WSW 0.2 km/h 4.8 km/h 46.9% 0 mm 40 W/m2
15:14 5.7 °C -4.9 °C 1019.2 hPa Calm   4.8 km/h 46.6% 0 mm 42 W/m2
15:19 5.6 °C -5 °C 1019.2 hPa Calm   4.8 km/h 46.5% 0 mm 42 W/m2
15:24 5.5 °C -4.8 °C 1019.2 hPa WSW 1 km/h 6.4 km/h 47.3% 0 mm 40 W/m2
15:29 5.4 °C -4.8 °C 1019.2 hPa WSW 0.6 km/h 6.4 km/h 47.5% 0 mm 40 W/m2
15:34 5.4 °C -4.8 °C 1019.5 hPa WSW 0.6 km/h 6.4 km/h 47.7% 0 mm 32 W/m2
15:39 5.3 °C -5.1 °C 1019.5 hPa Calm   4.8 km/h 47.1% 0 mm 25 W/m2
15:44 5.2 °C -5.1 °C 1019.5 hPa WSW 0.5 km/h 4.8 km/h 47% 0 mm 25 W/m2
15:49 5.2 °C -5.2 °C 1019.5 hPa WSW 0.5 km/h 6.4 km/h 47% 0 mm 18 W/m2
15:54 5.1 °C -5.1 °C 1019.9 hPa WSW 0.2 km/h 6.4 km/h 48% 0 mm 18 W/m2
15:59 4.9 °C -5.1 °C 1020.2 hPa WSW 0.5 km/h 6.4 km/h 48.3% 0 mm 18 W/m2
16:09 4.8 °C -4.8 °C 1020.2 hPa Calm   1.6 km/h 50% 0 mm 11 W/m2
16:14 4.7 °C -5 °C 1019.9 hPa WSW 0.6 km/h 6.4 km/h 49.4% 0 mm 5 W/m2
16:19 4.6 °C -5.2 °C 1020.2 hPa WSW 0.2 km/h 6.4 km/h 49% 0 mm 0 W/m2
16:24 4.5 °C -5.3 °C 1020.2 hPa Calm   6.4 km/h 49% 0 mm 0 W/m2
16:29 4.4 °C -5.4 °C 1020.2 hPa WSW 0.2 km/h 6.4 km/h 49% 0 mm 0 W/m2
16:34 4.3 °C -5.5 °C 1020.2 hPa Calm   6.4 km/h 49% 0 mm 0 W/m2
16:39 4.2 °C -5.6 °C 1020.2 hPa Calm     49% 0 mm 0 W/m2
16:44 4.1 °C -5.6 °C 1020.2 hPa Calm     49.6% 0 mm 0 W/m2
16:49 3.9 °C -5.6 °C 1020.2 hPa Calm     50% 0 mm 0 W/m2
16:54 3.8 °C -5.7 °C 1020.2 hPa Calm     50% 0 mm 0 W/m2
16:59 3.7 °C -5.8 °C 1020.2 hPa Calm     50% 0 mm 0 W/m2
17:04 3.6 °C -5.9 °C 1020.2 hPa Calm     50% 0 mm 0 W/m2
17:09 3.5 °C -5.9 °C 1020.2 hPa Calm     50% 0 mm 0 W/m2
17:14 3.4 °C -5.9 °C 1020.2 hPa Calm     50.4% 0 mm 0 W/m2
17:19 3.3 °C -5.8 °C 1020.2 hPa Calm     51% 0 mm 0 W/m2
17:24 3.2 °C -5.9 °C 1020.2 hPa Calm     51% 0 mm 0 W/m2
17:29 3.2 °C -6 °C 1020.2 hPa Calm     51.1% 0 mm 0 W/m2
17:34 3.1 °C -5.7 °C 1020.5 hPa Calm     52.5% 0 mm 0 W/m2
17:39 3 °C -5.4 °C 1020.5 hPa Calm     54% 0 mm 0 W/m2
17:44 2.9 °C -5.2 °C 1020.2 hPa Calm     55% 0 mm 0 W/m2
17:49 2.8 °C -5.3 °C 1020.2 hPa Calm     54.8% 0 mm 0 W/m2
17:54 2.8 °C -5.6 °C 1020.2 hPa Calm     54.1% 0 mm 0 W/m2
17:59 2.7 °C -5.4 °C 1019.9 hPa Calm   1.6 km/h 55.1% 0 mm 0 W/m2
18:04 2.6 °C -5.3 °C 1019.9 hPa Calm   1.6 km/h 56% 0 mm 0 W/m2
18:09 2.6 °C -5.3 °C 1019.9 hPa Calm     56% 0 mm 0 W/m2
18:14 2.5 °C -5.2 °C 1020.2 hPa Calm     56.8% 0 mm 0 W/m2
18:19 2.4 °C -5.1 °C 1020.2 hPa WSW 0.3 km/h 1.6 km/h 57.8% 0 mm 0 W/m2
18:24 2.3 °C -5 °C 1020.2 hPa WSW 0.2 km/h 3.2 km/h 58.8% 0 mm 0 W/m2
18:29 2.1 °C -5.1 °C 1020.5 hPa WSW 0.2 km/h 3.2 km/h 59% 0 mm 0 W/m2
18:34 2 °C -5.2 °C 1020.5 hPa WSW 0.2 km/h 3.2 km/h 59% 0 mm 0 W/m2
18:39 1.9 °C -5.2 °C 1020.5 hPa Calm   1.6 km/h 59% 0 mm 0 W/m2
18:44 1.9 °C -5.3 °C 1020.9 hPa Calm   1.6 km/h 59% 0 mm 0 W/m2
18:49 1.8 °C -5.3 °C 1020.9 hPa Calm   1.6 km/h 59.1% 0 mm 0 W/m2
18:54 1.8 °C -5.2 °C 1020.9 hPa WSW 0.2 km/h 1.6 km/h 60% 0 mm 0 W/m2
18:59 1.7 °C -5.2 °C 1020.9 hPa Calm   1.6 km/h 60% 0 mm 0 W/m2
19:04 1.7 °C -5.3 °C 1020.9 hPa Calm   1.6 km/h 60% 0 mm 0 W/m2
19:09 1.6 °C -5.4 °C 1020.9 hPa WSW 0.3 km/h 3.2 km/h 59.7% 0 mm 0 W/m2
19:14 1.6 °C -5.5 °C 1020.9 hPa Calm   3.2 km/h 59.2% 0 mm 0 W/m2
19:19 1.6 °C -5.4 °C 1020.9 hPa Calm   3.2 km/h 59.5% 0 mm 0 W/m2
19:24 1.6 °C -5.3 °C 1020.9 hPa Calm   3.2 km/h 59.9% 0 mm 0 W/m2
19:29 1.6 °C -5.1 °C 1021.2 hPa Calm   3.2 km/h 61% 0 mm 0 W/m2
19:34 1.6 °C -5 °C 1020.9 hPa Calm   3.2 km/h 61.8% 0 mm 0 W/m2
19:39 1.4 °C -5 °C 1021.2 hPa Calm     62% 0 mm 0 W/m2
19:44 1.4 °C -5.1 °C 1021.2 hPa Calm     62% 0 mm 0 W/m2
19:49 1.3 °C -5.2 °C 1021.2 hPa Calm     62% 0 mm 0 W/m2
19:54 1.2 °C -5.1 °C 1021.2 hPa Calm     62.7% 0 mm 0 W/m2
19:59 1.2 °C -5 °C 1021.2 hPa Calm     63.5% 0 mm 0 W/m2
20:00 1.1 °C -5.2 °C 1020.9 hPa Calm     63% 0 mm 0 W/m2
20:09 1.1 °C -5 °C 1020.9 hPa Calm     64% 0 mm 0 W/m2
20:14 1 °C -5.2 °C 1021.2 hPa Calm     63.1% 0 mm 0 W/m2
20:19 1 °C -5.2 °C 1021.2 hPa Calm     63% 0 mm 0 W/m2
20:24 1 °C -5.2 °C 1021.2 hPa Calm     63.2% 0 mm 0 W/m2
20:29 1 °C -4.9 °C 1021.2 hPa Calm     64.6% 0 mm 0 W/m2
20:34 0.9 °C -4.8 °C 1021.2 hPa Calm     65.2% 0 mm 0 W/m2
20:39 0.9 °C -4.8 °C 1021.2 hPa Calm     66% 0 mm 0 W/m2
20:44 0.8 °C -4.8 °C 1020.9 hPa Calm     65.9% 0 mm 0 W/m2
20:49 0.7 °C -5.1 °C 1020.9 hPa Calm     65% 0 mm 0 W/m2
20:54 0.6 °C -5.2 °C 1020.9 hPa Calm     65% 0 mm 0 W/m2
20:59 0.6 °C -5.1 °C 1021.2 hPa Calm     65.7% 0 mm 0 W/m2
21:04 0.4 °C -4.9 °C 1021.2 hPa Calm     66.9% 0 mm 0 W/m2
21:09 0.4 °C -4.8 °C 1021.2 hPa Calm     68.3% 0 mm 0 W/m2
21:14 0.3 °C -4.7 °C 1021.2 hPa Calm     69% 0 mm 0 W/m2
21:19 0.2 °C -4.8 °C 1021.2 hPa Calm     69% 0 mm 0 W/m2
21:24 0.2 °C -4.8 °C 1021.2 hPa Calm   1.6 km/h 69% 0 mm 0 W/m2
21:29 0.2 °C -4.8 °C 1021.2 hPa Calm   1.6 km/h 69% 0 mm 0 W/m2
21:34 0.2 °C -4.6 °C 1021.2 hPa Calm   1.6 km/h 70.3% 0 mm 0 W/m2
21:39 0.2 °C -4.4 °C 1021.2 hPa Calm     71% 0 mm 0 W/m2
21:44 0.1 °C -4.7 °C 1021.2 hPa Calm     70.2% 0 mm 0 W/m2
21:49 0.1 °C -4.7 °C 1021.6 hPa Calm     70% 0 mm 0 W/m2
21:54 0.1 °C -4.7 °C 1021.6 hPa Calm     70% 0 mm 0 W/m2
21:59 0.1 °C -4.8 °C 1021.6 hPa Calm     69.6% 0 mm 0 W/m2
22:04 0.2 °C -5 °C 1021.6 hPa Calm     68.2% 0 mm 0 W/m2
22:09 0.3 °C -4.9 °C 1021.6 hPa Calm     68% 0 mm 0 W/m2
22:14 0.3 °C -4.7 °C 1021.6 hPa Calm     68.8% 0 mm 0 W/m2
22:19 0.3 °C -4.8 °C 1021.6 hPa Calm     68.5% 0 mm 0 W/m2
22:24 0.3 °C -4.9 °C 1021.6 hPa Calm     68% 0 mm 0 W/m2
22:29 0.3 °C -4.9 °C 1021.6 hPa Calm     68% 0 mm 0 W/m2
22:34 0.3 °C -5.1 °C 1021.6 hPa Calm     67.1% 0 mm 0 W/m2
22:39 0.3 °C -5.1 °C 1021.6 hPa Calm     67% 0 mm 0 W/m2
22:44 0.3 °C -5.1 °C 1021.6 hPa Calm     67% 0 mm 0 W/m2
22:49 0.3 °C -5.1 °C 1021.6 hPa Calm     67.3% 0 mm 0 W/m2
22:54 0.3 °C -4.9 °C 1021.6 hPa Calm     68.4% 0 mm 0 W/m2
22:59 0.2 °C -4.7 °C 1021.6 hPa Calm     69.4% 0 mm 0 W/m2
23:09 0.2 °C -4.4 °C 1021.6 hPa Calm     71% 0 mm 0 W/m2
23:14 0.2 °C -4.4 °C 1021.6 hPa Calm     71.3% 0 mm 0 W/m2
23:19 0.2 °C -4.3 °C 1021.6 hPa Calm   3.2 km/h 72.1% 0 mm 0 W/m2
23:24 0.2 °C -4.1 °C 1021.2 hPa Calm   3.2 km/h 73% 0 mm 0 W/m2
23:29 0.1 °C -4.3 °C 1021.2 hPa Calm   3.2 km/h 72.2% 0 mm 0 W/m2
23:34 0.1 °C -4.1 °C 1021.2 hPa Calm   3.2 km/h 73.3% 0 mm 0 W/m2
23:39 0.2 °C -3.9 °C 1021.2 hPa Calm     74% 0 mm 0 W/m2
23:44 0.2 °C -3.9 °C 1021.2 hPa Calm     74% 0 mm 0 W/m2
23:49 0.2 °C -3.8 °C 1021.2 hPa Calm     74.4% 0 mm 0 W/m2
23:54 0.2 °C -3.7 °C 1021.2 hPa Calm     75% 0 mm 0 W/m2
23:59 0.2 °C -3.7 °C 1020.9 hPa Calm     75% 0 mm 0 W/m2
Hartford County Weather
Compliments of Weather Underground - 2 mb